FW9122 Weather Reports


time (UTC)temp
C
wind
direction
speed
KPH
gust
KPH
rain 1hr
cm
rain 24hr
cm
rain mn
cm
humidity
%
barometer
mb
20260506193426 13 159 1.6 8.0 0.00 0.79 0.79 75 1010.6
20260506193320 13 159 1.6 8.0 0.00 0.79 0.79 75 1010.5
20260506193221 13 159 1.6 8.0 0.00 0.79 0.79 76 1010.4
20260506193132 13 161 1.6 8.0 0.00 0.79 0.79 76 1010.5
20260506192919 13 96 1.6 8.0 0.00 0.79 0.79 74 1010.4
20260506192721 13 67 1.6 8.0 0.00 0.79 0.79 74 1010.4
20260506192621 13 59 1.6 8.0 0.00 0.79 0.79 73 1010.4
20260506192527 13 59 1.6 8.0 0.00 0.79 0.79 73 1010.4
20260506192428 13 59 3.2 9.7 0.00 0.79 0.79 73 1010.4
20260506192321 13 60 3.2 9.7 0.00 0.79 0.79 73 1010.4
20260506192223 13 60 3.2 9.7 0.00 0.79 0.79 73 1010.4
20260506192126 13 61 4.8 9.7 0.00 0.79 0.79 73 1010.4
20260506192038 13 75 4.8 12.9 0.00 0.79 0.79 72 1010.4
20260506191920 13 75 6.4 12.9 0.00 0.79 0.79 72 1010.2
20260506191820 13 75 6.4 16.1 0.00 0.79 0.79 72 1010.4
20260506191723 13 75 6.4 16.1 0.00 0.79 0.79 72 1010.3
20260506191623 13 69 6.4 16.1 0.00 0.79 0.79 72 1010.2
20260506191421 13 63 6.4 16.1 0.00 0.79 0.79 73 1010.2
20260506191324 13 57 6.4 16.1 0.00 0.79 0.79 73 1010.2
20260506191222 13 68 6.4 16.1 0.00 0.79 0.79 73 1010.1
20260506191122 13 86 6.4 16.1 0.00 0.79 0.79 73 1010.2
20260506190926 13 141 4.8 16.1 0.00 0.79 0.79 72 1010.3
20260506190721 13 134 4.8 11.3 0.00 0.79 0.79 69 1010.2
20260506190627 13 150 4.8 11.3 0.00 0.79 0.79 70 1010.2
20260506190536 13 148 4.8 11.3 0.00 0.79 0.79 70 1010.0
20260506190419 13 150 4.8 11.3 0.00 0.79 0.79 72 1010.1
20260506190319 13 172 4.8 9.7 0.00 0.79 0.79 72 1010.0
20260506190222 13 194 3.2 9.7 0.00 0.79 0.79 69 1010.0
20260506190040 13 132 4.8 9.7 0.00 0.79 0.79 70 1009.9
20260506185925 13 107 4.8 11.3 0.00 0.79 0.79 70 1010.0
20260506185821 13 92 4.8 12.9 0.00 0.79 0.79 68 1010.0
20260506185719 13 88 4.8 12.9 0.00 0.79 0.79 68 1010.0
20260506185620 13 50 4.8 12.9 0.00 0.79 0.79 69 1010.0
20260506185534 13 62 4.8 12.9 0.00 0.79 0.79 69 1009.9
20260506185420 13 86 3.2 12.9 0.00 0.79 0.79 70 1009.8
20260506185325 13 185 3.2 12.9 0.00 0.79 0.79 69 1009.8
20260506185220 13 185 3.2 12.9 0.00 0.79 0.79 70 1009.9
20260506185036 13 192 1.6 12.9 0.00 0.79 0.79 71 1009.9
20260506184922 13 19 1.6 4.8 0.00 0.79 0.79 68 1009.7
20260506184821 13 132 1.6 4.8 0.00 0.79 0.79 66 1009.7
20260506184720 14 164 0.0 4.8 0.00 0.79 0.79 67 1009.8
20260506184622 14 164 1.6 6.4 0.00 0.79 0.79 66 1009.6
20260506184533 14 165 0.0 6.4 0.00 0.79 0.79 67 1009.7
20260506184419 14 184 0.0 4.8 0.00 0.79 0.79 67 1009.6
20260506184322 14 184 1.6 4.8 0.00 0.79 0.79 65 1009.6
20260506184121 15 184 1.6 6.4 0.00 0.79 0.79 65 1009.4
20260506184036 15 184 3.2 11.3 0.00 0.79 0.79 66 1009.5
20260506183923 15 184 4.8 14.5 0.00 0.79 0.79 62 1009.5
20260506183820 15 184 4.8 17.7 0.00 0.79 0.79 63 1009.4
20260506183719 15 184 4.8 17.7 0.00 0.79 0.79 63 1009.3
20260506183535 15 78 4.8 17.7 0.00 0.79 0.79 60 1009.4
20260506183420 15 84 4.8 17.7 0.00 0.79 0.79 60 1009.4
20260506183321 15 85 4.8 17.7 0.00 0.79 0.79 60 1009.3
20260506183124 15 109 4.8 17.7 0.00 0.79 0.79 60 1009.2
20260506183036 15 103 4.8 17.7 0.00 0.79 0.79 60 1009.3
20260506182919 14 112 4.8 17.7 0.00 0.79 0.79 62 1009.3
20260506182822 14 146 3.2 12.9 0.00 0.79 0.79 62 1009.3
20260506182722 15 57 3.2 12.9 0.00 0.79 0.79 62 1009.1
20260506182620 15 57 4.8 12.9 0.00 0.79 0.79 61 1009.1
20260506182528 15 57 4.8 12.9 0.00 0.79 0.79 61 1009.1
20260506182421 15 41 4.8 12.9 0.00 0.79 0.79 61 1009.1
20260506182322 15 5 4.8 12.9 0.00 0.79 0.79 61 1009.0
20260506182221 15 305 4.8 11.3 0.00 0.79 0.79 60 1009.0
20260506182036 15 18 6.4 14.5 0.00 0.79 0.79 60 1008.8
20260506181925 15 202 6.4 19.3 0.00 0.79 0.79 60 1008.8
20260506181820 15 147 8.0 19.3 0.00 0.79 0.79 61 1008.5
20260506181620 15 355 9.7 37.0 0.00 0.79 0.79 61 1008.4
20260506181529 15 214 11.3 35.4 0.00 0.79 0.79 60 1008.2
20260506181420 15 147 12.9 35.4 0.00 0.79 0.79 60 1008.2
20260506181321 15 217 12.9 35.4 0.00 0.79 0.79 60 1008.2
20260506181221 15 184 14.5 35.4 0.00 0.79 0.79 59 1008.2
20260506181123 15 177 14.5 35.4 0.00 0.79 0.79 59 1008.1
20260506180923 15 192 14.5 35.4 0.00 0.79 0.79 59 1007.9
20260506180820 15 188 12.9 35.4 0.00 0.79 0.79 59 1008.1
20260506180723 15 191 12.9 25.7 0.00 0.79 0.79 59 1007.9
20260506180620 15 198 12.9 25.7 0.00 0.79 0.79 59 1007.9
20260506180419 15 178 12.9 25.7 0.00 0.79 0.79 58 1007.9
20260506180123 15 219 14.5 24.1 0.00 0.79 0.79 57 1007.8
20260506180044 15 184 14.5 29.0 0.00 0.79 0.79 58 1007.9
20260506175922 15 172 14.5 29.0 0.00 0.79 0.79 58 1007.8
20260506175820 15 195 16.1 29.0 0.00 0.79 0.79 57 1007.9
20260506175529 15 187 17.7 32.2 0.00 0.79 0.79 57 1007.8
20260506175419 15 211 17.7 32.2 0.00 0.79 0.79 57 1007.8
20260506175322 15 210 17.7 32.2 0.00 0.79 0.79 57 1007.8
20260506175120 15 224 17.7 32.2 0.00 0.79 0.79 56 1007.7
20260506175036 15 171 17.7 32.2 0.00 0.79 0.79 56 1007.9
20260506174819 15 202 17.7 30.6 0.00 0.79 0.79 56 1007.7
20260506174721 15 182 16.1 30.6 0.00 0.79 0.79 56 1007.8
20260506174619 15 187 17.7 30.6 0.00 0.79 0.79 56 1007.6
20260506174529 16 208 16.1 30.6 0.00 0.79 0.79 55 1007.5
20260506174420 16 196 16.1 29.0 0.00 0.79 0.79 55 1007.5
20260506174321 16 181 16.1 29.0 0.00 0.79 0.79 56 1007.5
20260506174221 16 228 16.1 27.4 0.00 0.79 0.79 55 1007.3
20260506174119 16 196 16.1 27.4 0.00 0.79 0.79 56 1007.4
20260506174036 16 170 16.1 27.4 0.00 0.79 0.79 56 1007.3
20260506173921 16 190 16.1 27.4 0.00 0.79 0.79 55 1007.4
20260506173819 16 195 16.1 27.4 0.00 0.79 0.79 56 1007.4
20260506173619 16 188 17.7 32.2 0.00 0.79 0.79 56 1007.3
20260506173420 16 213 16.1 32.2 0.00 0.79 0.79 56 1007.3
20260506173322 16 182 16.1 32.2 0.00 0.79 0.79 56 1007.4
20260506173222 16 189 16.1 35.4 0.00 0.79 0.79 56 1007.5
20260506173120 16 207 17.7 35.4 0.00 0.79 0.79 56 1007.4
20260506173039 16 196 17.7 35.4 0.00 0.79 0.79 56 1007.3
20260506172922 16 187 17.7 35.4 0.00 0.79 0.79 56 1007.2
20260506172819 16 220 17.7 35.4 0.00 0.79 0.79 56 1007.2
20260506172719 16 197 17.7 35.4 0.00 0.79 0.79 57 1007.2
20260506172621 16 203 17.7 35.4 0.00 0.79 0.79 57 1007.1
20260506172419 16 202 17.7 35.4 0.00 0.79 0.79 56 1007.1
20260506172319 16 159 17.7 35.4 0.00 0.79 0.79 55 1007.0
20260506172222 16 202 17.7 35.4 0.00 0.79 0.79 54 1007.0
20260506172119 16 190 17.7 35.4 0.00 0.79 0.79 55 1007.0
20260506172036 16 169 17.7 35.4 0.00 0.79 0.79 55 1006.9
20260506171920 16 185 19.3 35.4 0.00 0.79 0.79 54 1007.0
20260506171821 16 161 19.3 33.8 0.00 0.79 0.79 55 1006.9
20260506171719 16 184 20.9 35.4 0.00 0.79 0.79 54 1007.0
20260506171528 16 166 22.5 35.4 0.00 0.79 0.79 54 1007.0
20260506171320 16 174 24.1 45.1 0.00 0.79 0.79 53 1006.9
20260506171219 16 176 24.1 45.1 0.00 0.79 0.79 53 1006.9
20260506171119 16 188 24.1 45.1 0.00 0.79 0.79 53 1006.9
20260506171041 16 187 24.1 45.1 0.00 0.79 0.79 53 1006.8
20260506170919 16 194 22.5 45.1 0.00 0.79 0.79 52 1006.8
20260506170821 16 202 20.9 45.1 0.00 0.79 0.79 52 1006.8
20260506170621 16 207 20.9 45.1 0.00 0.79 0.79 52 1006.8
20260506170527 16 186 19.3 45.1 0.00 0.79 0.79 52 1006.9
20260506170421 16 192 19.3 35.4 0.00 0.79 0.79 52 1006.8
20260506170320 16 213 19.3 35.4 0.00 0.79 0.79 52 1006.9
20260506170219 17 202 17.7 35.4 0.00 0.79 0.79 52 1006.7
20260506170122 17 234 16.1 35.4 0.00 0.79 0.79 51 1006.7
20260506170043 17 204 16.1 35.4 0.00 0.79 0.79 51 1006.6
20260506165920 17 193 16.1 35.4 0.00 0.79 0.79 53 1006.7
20260506165819 17 206 16.1 33.8 0.00 0.79 0.79 52 1006.7
20260506165722 17 153 16.1 33.8 0.00 0.79 0.79 52 1006.8
20260506165529 17 170 14.5 33.8 0.00 0.79 0.79 51 1006.8
20260506165419 17 203 14.5 30.6 0.00 0.79 0.79 51 1006.7
20260506165320 17 213 14.5 25.7 0.00 0.79 0.79 53 1006.7
20260506165220 17 197 16.1 40.2 0.00 0.79 0.79 53 1006.8
20260506165038 17 194 16.1 40.2 0.00 0.79 0.79 53 1006.7
20260506164919 17 188 16.1 40.2 0.00 0.79 0.79 52 1006.8
20260506164819 17 188 16.1 40.2 0.00 0.79 0.79 52 1006.7
20260506164529 17 203 17.7 40.2 0.00 0.79 0.79 52 1006.6
20260506164419 17 169 17.7 40.2 0.00 0.79 0.79 51 1006.8
20260506164320 17 207 17.7 33.8 0.00 0.79 0.79 51 1006.7
20260506164219 17 169 17.7 33.8 0.00 0.79 0.79 52 1006.8
20260506164121 17 196 17.7 33.8 0.00 0.79 0.79 52 1006.8
20260506164037 17 196 16.1 33.8 0.00 0.79 0.79 52 1006.7
20260506163919 17 200 16.1 33.8 0.00 0.79 0.79 51 1006.8
20260506163819 17 205 17.7 33.8 0.00 0.79 0.79 51 1006.7
20260506163722 17 188 17.7 33.8 0.00 0.79 0.79 50 1006.7
20260506163529 17 176 16.1 37.0 0.00 0.79 0.79 50 1006.7
20260506163420 17 178 14.5 37.0 0.00 0.79 0.79 51 1006.6
20260506163320 17 206 14.5 37.0 0.00 0.79 0.79 52 1006.6
20260506163219 17 226 14.5 37.0 0.00 0.79 0.79 51 1006.7
20260506163038 17 209 14.5 37.0 0.00 0.79 0.79 52 1006.7
20260506162919 17 178 14.5 37.0 0.00 0.79 0.79 51 1006.7
20260506162705 17 182 16.1 27.4 0.00 0.79 0.79 52 1006.7
20260506162603 17 200 16.1 27.4 0.00 0.79 0.79 52 1006.7
20260506162527 17 200 16.1 27.4 0.00 0.79 0.79 52 1006.7
20260506162421 18 192 16.1 30.6 0.00 0.79 0.79 52 1006.7
20260506162039 18 213 17.7 30.6 0.00 0.79 0.79 50 1006.6
20260506161821 18 182 17.7 30.6 0.00 0.79 0.79 50 1006.7
20260506161719 18 227 16.1 30.6 0.00 0.79 0.79 50 1006.7
20260506161527 18 205 14.5 29.0 0.00 0.79 0.79 49 1006.7
20260506161320 18 198 14.5 29.0 0.00 0.79 0.79 51 1006.8
20260506161219 18 190 12.9 29.0 0.00 0.79 0.79 50 1006.8
20260506161119 18 180 11.3 22.5 0.00 0.79 0.79 49 1006.7
20260506161039 18 205 11.3 22.5 0.00 0.79 0.79 49 1006.8
20260506160919 18 198 12.9 19.3 0.00 0.79 0.79 49 1006.7
20260506160821 18 214 12.9 27.4 0.00 0.79 0.79 51 1006.7
20260506160719 18 198 12.9 33.8 0.00 0.79 0.79 51 1006.7
20260506160620 18 165 14.5 33.8 0.00 0.79 0.79 52 1006.7
20260506160528 18 142 12.9 33.8 0.00 0.79 0.79 52 1006.7
20260506160421 18 219 14.5 33.8 0.00 0.79 0.79 51 1006.5
20260506160321 18 196 14.5 33.8 0.00 0.79 0.79 51 1006.7
20260506160219 18 194 14.5 33.8 0.00 0.79 0.79 51 1006.7
20260506160042 18 178 17.7 33.8 0.00 0.79 0.79 48 1006.7
20260506155919 18 189 16.1 40.2 0.00 0.79 0.79 50 1006.8
20260506155819 18 175 14.5 32.2 0.00 0.79 0.79 50 1006.7
20260506155722 18 181 14.5 32.2 0.00 0.79 0.79 50 1006.8
20260506155620 18 192 14.5 29.0 0.00 0.79 0.79 50 1006.8
20260506155527 18 200 16.1 29.0 0.00 0.79 0.79 51 1006.7
20260506155421 18 188 16.1 29.0 0.00 0.79 0.79 50 1006.8
20260506155321 18 180 16.1 29.0 0.00 0.79 0.79 51 1006.6
20260506155219 18 191 16.1 29.0 0.00 0.79 0.79 49 1006.7
20260506155038 18 194 16.1 29.0 0.00 0.79 0.79 50 1006.8
20260506154919 18 194 16.1 27.4 0.00 0.79 0.79 50 1006.7
20260506154820 18 153 17.7 27.4 0.00 0.79 0.79 49 1006.7
20260506154723 18 178 17.7 27.4 0.00 0.79 0.79 48 1006.8
20260506154420 18 193 17.7 30.6 0.00 0.79 0.79 47 1006.7
20260506154221 18 217 17.7 30.6 0.00 0.79 0.79 47 1006.6
20260506154120 18 202 17.7 30.6 0.00 0.79 0.79 48 1006.8
20260506154037 18 185 17.7 37.0 0.00 0.79 0.79 50 1006.8
20260506153821 18 185 17.7 37.0 0.00 0.79 0.79 47 1006.6
20260506153704 18 185 16.1 37.0 0.00 0.79 0.79 47 1006.7
20260506153603 18 182 16.1 37.0 0.00 0.79 0.79 47 1006.7
20260506153502 18 224 16.1 37.0 0.00 0.79 0.79 48 1006.6
20260506153404 18 196 16.1 37.0 0.00 0.79 0.79 48 1006.6
20260506153302 18 144 16.1 37.0 0.00 0.79 0.79 47 1006.7
20260506153203 18 163 14.5 37.0 0.00 0.79 0.79 46 1006.7
20260506153102 19 194 14.5 25.7 0.00 0.79 0.79 48 1006.7
20260506153005 19 197 12.9 29.0 0.00 0.79 0.79 47 1006.6
20260506152902 19 143 12.9 24.1 0.00 0.79 0.79 48 1006.8
20260506152802 19 190 11.3 22.5 0.00 0.79 0.79 48 1006.8
20260506152704 19 179 11.3 22.5 0.00 0.79 0.79 49 1006.8
20260506152502 19 192 11.3 20.9 0.00 0.79 0.79 49 1006.7
20260506152402 19 205 11.3 17.7 0.00 0.79 0.79 48 1006.7
20260506152102 19 211 11.3 20.9 0.00 0.79 0.79 50 1006.7
20260506152004 19 237 11.3 20.9 0.00 0.79 0.79 48 1006.8
20260506151904 19 199 12.9 20.9 0.00 0.79 0.79 48 1006.7
20260506151704 19 229 14.5 20.9 0.00 0.79 0.79 49 1006.8
20260506151602 19 190 14.5 25.7 0.00 0.79 0.79 48 1006.8
20260506151502 19 200 14.5 32.2 0.00 0.79 0.79 49 1006.8
20260506151402 19 169 14.5 32.2 0.00 0.79 0.79 50 1006.8
20260506151304 19 194 14.5 32.2 0.00 0.79 0.79 48 1006.8
20260506151204 19 194 12.9 32.2 0.00 0.79 0.79 47 1006.9
20260506151102 19 215 12.9 32.2 0.00 0.79 0.79 49 1006.7
20260506151004 19 187 12.9 32.2 0.00 0.79 0.79 47 1006.8
20260506150906 19 198 12.9 32.2 0.00 0.79 0.79 49 1006.9
20260506150802 19 171 11.3 32.2 0.00 0.79 0.79 49 1006.8
20260506150604 19 192 11.3 25.7 0.00 0.79 0.79 48 1006.8
20260506150504 19 209 11.3 25.7 0.00 0.79 0.79 48 1006.9
20260506150402 19 191 12.9 25.7 0.00 0.79 0.79 49 1006.9
20260506150221 19 193 12.9 25.7 0.00 0.79 0.79 49 1006.9
20260506150119 19 223 12.9 25.7 0.00 0.79 0.79 49 1006.9
20260506150039 19 196 12.9 25.7 0.00 0.79 0.79 47 1006.9
20260506145819 19 189 12.9 25.7 0.00 0.79 0.79 49 1006.9
20260506145721 19 188 12.9 25.7 0.00 0.79 0.79 47 1007.0
20260506145619 19 185 11.3 25.7 0.00 0.79 0.79 50 1007.0
20260506145419 19 178 11.3 20.9 0.00 0.79 0.79 49 1007.0
20260506145321 19 194 11.3 20.9 0.00 0.79 0.79 47 1006.9
20260506145220 19 210 11.3 20.9 0.00 0.79 0.79 48 1006.9
20260506145036 19 171 9.7 20.9 0.00 0.79 0.79 50 1007.1
20260506144922 19 186 8.0 24.1 0.00 0.79 0.79 50 1007.0
20260506144819 19 207 8.0 19.3 0.00 0.79 0.79 49 1007.1
20260506144721 19 205 8.0 19.3 0.00 0.79 0.79 50 1007.0
20260506144620 19 196 8.0 19.3 0.00 0.79 0.79 49 1007.0
20260506144528 19 192 8.0 22.5 0.00 0.79 0.79 51 1007.1
20260506144220 19 196 9.7 29.0 0.00 0.79 0.79 51 1007.0
20260506144119 19 189 9.7 29.0 0.00 0.79 0.79 51 1007.1
20260506143922 19 214 11.3 29.0 0.00 0.79 0.79 51 1007.0
20260506143819 19 225 11.3 29.0 0.00 0.79 0.79 49 1007.1
20260506143721 19 194 11.3 29.0 0.00 0.79 0.79 49 1007.1
20260506143621 19 215 9.7 29.0 0.00 0.79 0.79 53 1007.3
20260506143419 19 169 9.7 29.0 0.00 0.79 0.79 50 1007.1
20260506143319 19 183 9.7 20.9 0.00 0.79 0.79 53 1007.0
20260506143222 19 208 9.7 27.4 0.00 0.79 0.79 52 1007.2
20260506143119 19 185 11.3 27.4 0.00 0.79 0.79 51 1007.0
20260506143037 19 167 11.3 27.4 0.00 0.79 0.79 50 1007.2
20260506142922 19 194 11.3 27.4 0.00 0.79 0.79 53 1007.1
20260506142819 19 272 11.3 27.4 0.00 0.79 0.79 51 1007.1
20260506142719 19 241 12.9 27.4 0.00 0.79 0.79 51 1007.3
20260506142621 19 213 12.9 27.4 0.00 0.79 0.79 49 1007.1
20260506142529 19 207 12.9 27.4 0.00 0.79 0.79 55 1007.2
20260506142419 19 169 12.9 27.4 0.00 0.79 0.79 51 1007.3
20260506142322 19 162 12.9 25.7 0.00 0.79 0.79 53 1007.2
20260506142219 19 196 12.9 25.7 0.00 0.79 0.79 50 1007.2
20260506142122 19 209 14.5 25.7 0.00 0.79 0.79 50 1007.2
20260506141919 19 159 14.5 25.7 0.00 0.79 0.79 51 1007.2
20260506141819 19 191 12.9 25.7 0.00 0.79 0.79 53 1007.3
20260506141722 19 200 12.9 25.7 0.00 0.79 0.79 52 1007.2
20260506141619 19 195 12.9 25.7 0.00 0.79 0.79 51 1007.2
20260506141529 19 158 12.9 24.1 0.00 0.79 0.79 52 1007.3
20260506141419 19 168 12.9 24.1 0.00 0.79 0.79 52 1007.2
20260506141321 19 148 12.9 24.1 0.00 0.79 0.79 53 1007.3
20260506141219 19 180 14.5 24.1 0.00 0.79 0.79 51 1007.2
20260506141121 19 254 14.5 27.4 0.00 0.79 0.79 52 1007.2
20260506141038 19 171 14.5 27.4 0.00 0.79 0.79 50 1007.2
20260506140919 19 176 14.5 27.4 0.00 0.79 0.79 55 1007.3
20260506140819 19 181 14.5 27.4 0.00 0.79 0.79 53 1007.4
20260506140619 19 196 12.9 27.4 0.00 0.79 0.79 52 1007.3
20260506140528 19 182 14.5 27.4 0.00 0.79 0.79 55 1007.4
20260506140321 19 182 12.9 27.4 0.00 0.79 0.79 53 1007.3
20260506140219 19 190 12.9 27.4 0.00 0.79 0.79 52 1007.4
20260506140040 19 159 11.3 27.4 0.00 0.79 0.79 52 1007.3
20260506135919 19 188 12.9 27.4 0.00 0.79 0.79 54 1007.4
20260506135821 19 198 12.9 27.4 0.00 0.79 0.79 52 1007.3
20260506135720 19 198 12.9 27.4 0.00 0.79 0.79 50 1007.4
20260506135620 19 198 12.9 27.4 0.00 0.79 0.79 52 1007.4
20260506135527 19 213 14.5 27.4 0.00 0.79 0.79 52 1007.4
20260506135421 19 207 14.5 27.4 0.00 0.79 0.79 50 1007.4
20260506135319 19 222 14.5 25.7 0.00 0.79 0.79 53 1007.4
20260506135220 19 197 14.5 25.7 0.00 0.79 0.79 54 1007.4
20260506135037 19 186 16.1 29.0 0.00 0.79 0.79 53 1007.4
20260506134919 19 191 16.1 29.0 0.00 0.79 0.79 52 1007.5
20260506134821 19 186 16.1 29.0 0.00 0.79 0.79 54 1007.4
20260506134720 19 152 16.1 29.0 0.00 0.79 0.79 54 1007.4
20260506134619 19 211 17.7 29.0 0.00 0.79 0.79 52 1007.5
20260506134319 19 199 16.1 29.0 0.00 0.79 0.79 55 1007.5
20260506134221 19 178 16.1 29.0 0.00 0.79 0.79 53 1007.5
20260506134119 19 192 16.1 29.0 0.00 0.79 0.79 55 1007.5
20260506134038 19 203 14.5 27.4 0.00 0.79 0.79 55 1007.6
20260506133720 19 184 14.5 30.6 0.00 0.79 0.79 54 1007.7
20260506133502 19 191 16.1 32.2 0.00 0.79 0.79 53 1007.6
20260506133404 19 187 14.5 32.2 0.00 0.79 0.79 54 1007.6
20260506133302 19 205 14.5 32.2 0.00 0.79 0.79 55 1007.6
20260506133202 19 194 14.5 32.2 0.00 0.79 0.79 54 1007.5
20260506133106 19 194 14.5 32.2 0.00 0.79 0.79 56 1007.6
20260506133004 19 218 16.1 32.2 0.00 0.79 0.79 57 1007.6
20260506132902 19 156 14.5 32.2 0.00 0.79 0.79 54 1007.6
20260506132802 19 184 14.5 33.8 0.00 0.79 0.79 54 1007.6
20260506132602 19 184 12.9 29.0 0.00 0.79 0.79 55 1007.6
20260506132527 19 162 12.9 29.0 0.00 0.79 0.79 57 1007.6
20260506132006 19 144 12.9 29.0 0.00 0.79 0.79 57 1007.6
20260506131902 19 195 14.5 24.1 0.00 0.79 0.79 57 1007.5
20260506131803 19 209 14.5 24.1 0.00 0.79 0.79 56 1007.6
20260506131703 19 175 14.5 27.4 0.00 0.79 0.79 57 1007.5
20260506131606 19 193 14.5 27.4 0.00 0.79 0.79 56 1007.5
20260506131506 19 203 14.5 27.4 0.00 0.79 0.79 56 1007.7
20260506131420 19 201 14.5 27.4 0.00 0.79 0.79 58 1007.7
20260506131321 19 174 12.9 37.0 0.00 0.79 0.79 58 1007.5
20260506131220 19 188 12.9 37.0 0.00 0.79 0.79 58 1007.6
20260506131119 19 159 14.5 37.0 0.00 0.79 0.79 60 1007.5
20260506131003 19 235 14.5 37.0 0.00 0.79 0.79 56 1007.6
20260506130904 19 153 16.1 37.0 0.00 0.79 0.79 57 1007.7
20260506130802 19 190 14.5 37.0 0.00 0.79 0.79 55 1007.7
20260506130702 19 186 14.5 37.0 0.00 0.79 0.79 58 1007.6
20260506130602 19 194 14.5 37.0 0.00 0.79 0.79 58 1007.6
20260506130505 19 135 14.5 35.4 0.00 0.79 0.79 58 1007.6
20260506130402 19 179 16.1 29.0 0.00 0.79 0.79 61 1007.5
20260506130302 18 173 16.1 29.0 0.00 0.79 0.79 58 1007.5
20260506130202 19 186 14.5 30.6 0.00 0.79 0.79 57 1007.6
20260506130106 19 160 14.5 32.2 0.00 0.79 0.79 58 1007.5
20260506130005 19 169 14.5 32.2 0.00 0.79 0.79 58 1007.5
20260506125901 19 192 14.5 32.2 0.00 0.79 0.79 57 1007.6
20260506125701 19 181 14.5 32.2 0.00 0.79 0.79 58 1007.7
20260506125601 19 190 14.5 32.2 0.00 0.79 0.79 59 1007.7
20260506125501 18 192 14.5 32.2 0.00 0.79 0.79 58 1007.8
20260506125304 19 155 14.5 27.4 0.00 0.79 0.79 58 1007.7
20260506125201 19 193 14.5 22.5 0.00 0.79 0.79 55 1007.6
20260506125104 19 199 14.5 22.5 0.00 0.79 0.79 56 1007.7
20260506125004 19 171 14.5 30.6 0.00 0.79 0.79 56 1007.7
20260506124902 19 187 14.5 30.6 0.00 0.79 0.79 59 1007.7
20260506124704 19 177 14.5 30.6 0.00 0.79 0.79 59 1007.6
20260506124601 19 181 16.1 30.6 0.00 0.79 0.79 61 1007.6
20260506124502 18 183 16.1 30.6 0.00 0.79 0.79 57 1007.6
20260506124407 18 144 16.1 30.6 0.00 0.79 0.79 59 1007.6
20260506124323 18 182 17.7 30.6 0.00 0.79 0.79 59 1007.6
20260506124219 18 186 17.7 30.6 0.00 0.79 0.79 58 1007.7
20260506124123 18 181 17.7 30.6 0.00 0.79 0.79 59 1007.5
20260506124037 18 186 17.7 30.6 0.00 0.79 0.79 61 1007.6
20260506123718 18 190 17.7 30.6 0.00 0.79 0.79 58 1007.5
20260506123620 18 180 17.7 30.6 0.00 0.79 0.79 58 1007.7
20260506123319 18 173 16.1 30.6 0.00 0.79 0.79 61 1007.6
20260506123118 18 182 16.1 30.6 0.00 0.79 0.79 62 1007.6
20260506123037 18 198 16.1 30.6 0.00 0.79 0.79 58 1007.5
20260506122918 18 202 16.1 30.6 0.00 0.79 0.79 62 1007.6
20260506122821 18 159 16.1 33.8 0.00 0.79 0.79 60 1007.7
20260506122718 18 187 16.1 33.8 0.00 0.79 0.79 58 1007.6
20260506122526 18 202 16.1 33.8 0.00 0.79 0.79 61 1007.6
20260506122419 18 161 17.7 33.8 0.00 0.79 0.79 61 1007.5
20260506122218 18 202 17.7 33.8 0.00 0.79 0.79 62 1007.5
20260506122118 18 159 17.7 33.8 0.00 0.79 0.79 63 1007.5
20260506122037 18 200 17.7 33.8 0.00 0.79 0.79 61 1007.5
20260506121918 18 190 17.7 33.8 0.00 0.79 0.79 63 1007.4
20260506121820 18 211 17.7 33.8 0.00 0.79 0.79 61 1007.6
20260506121718 18 172 17.7 33.8 0.00 0.79 0.79 64 1007.5
20260506121420 18 224 17.7 32.2 0.00 0.79 0.79 62 1007.4
20260506121320 18 163 19.3 32.2 0.00 0.79 0.79 62 1007.5
20260506121218 18 211 19.3 32.2 0.00 0.79 0.79 62 1007.4
20260506121118 18 186 19.3 33.8 0.00 0.79 0.79 62 1007.6
20260506121037 18 198 17.7 33.8 0.00 0.79 0.79 64 1007.6
20260506120918 18 204 17.7 33.8 0.00 0.79 0.79 66 1007.5
20260506120820 18 205 16.1 33.8 0.00 0.79 0.79 65 1007.5
20260506120718 18 186 16.1 33.8 0.00 0.79 0.79 64 1007.5
20260506120619 18 219 14.5 33.8 0.00 0.79 0.79 64 1007.6
20260506120526 18 180 12.9 33.8 0.00 0.79 0.79 64 1007.6
20260506120420 18 155 11.3 33.8 0.00 0.79 0.79 65 1007.6
20260506120321 18 185 9.7 33.8 0.00 0.79 0.79 64 1007.6
20260506120218 17 170 8.0 24.1 0.00 0.79 0.79 67 1007.4
20260506120120 17 133 8.0 24.1 0.00 0.79 0.79 74 1007.6
20260506120041 17 210 9.7 24.1 0.00 0.79 0.79 74 1007.6
20260506115919 17 117 9.7 20.9 0.00 0.84 0.79 78 1007.6
20260506115821 17 63 9.7 20.9 0.00 0.84 0.79 80 1007.6
20260506115620 17 60 8.0 20.9 0.00 0.84 0.79 80 1007.7
20260506115527 17 50 8.0 20.9 0.00 0.84 0.79 81 1007.7
20260506115421 17 84 8.0 20.9 0.00 0.84 0.79 83 1007.6
20260506115321 17 69 8.0 20.9 0.00 0.84 0.79 81 1007.7
20260506115119 17 51 6.4 20.9 0.00 0.84 0.79 81 1007.7
20260506115038 17 62 6.4 17.7 0.00 0.84 0.79 84 1007.7
20260506114919 17 29 6.4 14.5 0.00 0.84 0.79 85 1007.6
20260506114821 17 5 6.4 14.5 0.00 0.84 0.79 85 1007.7
20260506114719 17 62 8.0 17.7 0.00 0.84 0.79 85 1007.8
20260506114622 16 62 8.0 17.7 0.00 0.84 0.79 85 1007.7
20260506114527 16 42 9.7 17.7 0.00 0.84 0.79 83 1007.7
20260506114421 16 42 9.7 17.7 0.00 0.84 0.79 84 1007.7
20260506114320 16 71 11.3 17.7 0.00 0.84 0.79 85 1007.7
20260506114119 16 37 12.9 22.5 0.00 0.84 0.79 85 1007.7
20260506114038 16 67 12.9 22.5 0.00 0.84 0.79 85 1007.8
20260506113919 16 24 14.5 22.5 0.00 0.84 0.79 85 1007.7
20260506113820 16 28 12.9 22.5 0.00 0.84 0.79 85 1007.8
20260506113719 16 39 12.9 22.5 0.00 0.84 0.79 85 1007.7
20260506113620 16 24 12.9 22.5 0.00 0.84 0.79 84 1007.8
20260506113527 16 28 12.9 22.5 0.00 0.84 0.79 83 1007.7
20260506113421 16 51 12.9 22.5 0.00 0.84 0.79 82 1007.8
20260506113320 16 36 11.3 22.5 0.00 0.84 0.79 83 1007.8
20260506113219 16 40 11.3 22.5 0.00 0.84 0.79 83 1007.7
20260506113119 16 67 9.7 22.5 0.00 0.84 0.79 82 1007.8
20260506113038 16 55 8.0 22.5 0.00 0.84 0.79 82 1007.8
20260506112919 17 46 8.0 19.3 0.00 0.84 0.79 83 1007.8
20260506112821 17 10 8.0 14.5 0.00 0.84 0.79 83 1007.8
20260506112719 16 32 6.4 14.5 0.00 0.84 0.79 84 1007.8
20260506112620 16 57 6.4 14.5 0.00 0.84 0.79 84 1007.8
20260506112527 16 13 6.4 12.9 0.00 0.84 0.79 84 1007.7
20260506112320 16 32 6.4 14.5 0.00 0.84 0.79 83 1007.7
20260506112219 16 28 8.0 16.1 0.00 0.84 0.79 83 1007.8
20260506112119 16 11 8.0 19.3 0.00 0.84 0.79 83 1007.8
20260506112038 16 57 9.7 19.3 0.00 0.84 0.79 83 1007.8
20260506111821 16 49 11.3 19.3 0.00 0.84 0.79 84 1007.8
20260506111621 16 5 12.9 19.3 0.00 0.84 0.79 84 1007.8
20260506111320 16 57 12.9 19.3 0.00 0.84 0.79 84 1007.8
20260506111219 16 54 12.9 19.3 0.00 0.84 0.79 84 1007.9
20260506111038 16 55 12.9 19.3 0.00 0.84 0.79 84 1007.8
20260506110820 16 55 12.9 19.3 0.00 0.84 0.79 85 1007.9
20260506110719 16 61 12.9 19.3 0.00 0.84 0.79 85 1007.9
20260506110621 16 62 12.9 19.3 0.00 0.84 0.79 84 1007.8
20260506110527 16 49 11.3 19.3 0.00 0.84 0.79 85 1007.9
20260506110421 16 74 12.9 19.3 0.00 0.84 0.79 85 1007.9
20260506110320 16 66 12.9 19.3 0.00 0.84 0.79 84 1007.9
20260506110219 16 38 12.9 19.3 0.00 0.84 0.79 84 1007.8
20260506110120 16 75 12.9 19.3 0.00 0.84 0.79 84 1007.9
20260506110041 16 39 12.9 19.3 0.00 0.84 0.79 84 1007.9
20260506105919 16 49 12.9 20.9 0.00 0.86 0.79 85 1007.9
20260506105821 16 66 12.9 20.9 0.00 0.86 0.79 86 1008.0
20260506105719 16 19 11.3 20.9 0.00 0.86 0.79 87 1008.0
20260506105620 16 59 11.3 20.9 0.00 0.86 0.79 87 1007.8
20260506105527 16 46 11.3 20.9 0.00 0.86 0.79 87 1007.9
20260506105421 16 65 11.3 20.9 0.00 0.86 0.79 86 1007.9
20260506105321 16 74 11.3 20.9 0.00 0.86 0.79 87 1007.9
20260506105219 16 62 9.7 20.9 0.00 0.86 0.79 85 1007.9
20260506105038 16 37 9.7 17.7 0.00 0.86 0.79 87 1008.0
20260506104919 16 12 9.7 17.7 0.00 0.86 0.79 89 1007.9
20260506104822 16 17 9.7 17.7 0.00 0.86 0.79 88 1008.0
20260506104721 15 62 9.7 17.7 0.00 0.86 0.79 87 1008.0
20260506104621 15 69 11.3 17.7 0.00 0.86 0.79 86 1008.1
20260506104527 15 57 11.3 17.7 0.00 0.86 0.79 87 1008.1
20260506104421 15 55 11.3 17.7 0.00 0.86 0.79 87 1008.0
20260506104321 15 66 11.3 19.3 0.00 0.86 0.79 87 1008.0
20260506104219 15 53 11.3 19.3 0.00 0.86 0.79 88 1008.1
20260506104119 15 32 11.3 19.3 0.00 0.86 0.79 88 1008.0
20260506104039 15 30 11.3 19.3 0.00 0.86 0.79 89 1008.1
20260506103919 15 30 11.3 19.3 0.00 0.86 0.79 89 1008.0
20260506103820 15 42 11.3 19.3 0.00 0.86 0.79 89 1008.0
20260506103719 15 44 11.3 19.3 0.00 0.86 0.79 88 1008.1
20260506103620 15 57 11.3 19.3 0.00 0.86 0.79 89 1008.0
20260506103420 15 51 9.7 17.7 0.00 0.86 0.79 89 1008.0
20260506103320 15 51 11.3 16.1 0.00 0.86 0.79 89 1008.0
20260506103219 15 46 11.3 20.9 0.00 0.86 0.79 89 1008.1
20260506103120 15 59 11.3 20.9 0.00 0.86 0.79 90 1008.1
20260506103041 15 48 11.3 20.9 0.00 0.86 0.79 89 1008.1
20260506102919 15 47 12.9 20.9 0.00 0.86 0.79 89 1008.1
20260506102821 15 39 12.9 20.9 0.00 0.86 0.79 90 1008.0
20260506102719 15 59 12.9 20.9 0.00 0.86 0.79 89 1008.1
20260506102527 15 65 12.9 20.9 0.00 0.86 0.79 89 1008.1
20260506102321 15 63 11.3 20.9 0.00 0.86 0.79 89 1008.1
20260506102219 15 59 11.3 20.9 0.00 0.86 0.79 90 1008.1
20260506102120 15 55 11.3 20.9 0.00 0.86 0.79 89 1008.1
20260506102043 15 58 9.7 20.9 0.00 0.86 0.79 89 1008.0
20260506101919 15 42 9.7 20.9 0.00 0.86 0.79 89 1008.2
20260506101719 15 37 8.0 17.7 0.00 0.86 0.79 89 1008.2
20260506101621 15 71 8.0 17.7 0.00 0.86 0.79 89 1008.1
20260506101527 15 55 8.0 17.7 0.00 0.86 0.79 90 1008.3
20260506101421 15 32 9.7 17.7 0.00 0.86 0.79 89 1008.2
20260506101320 15 38 9.7 17.7 0.00 0.86 0.79 89 1008.3
20260506101219 15 78 9.7 17.7 0.00 0.86 0.79 89 1008.3
20260506101119 15 55 8.0 17.7 0.00 0.86 0.79 89 1008.2
20260506101038 15 69 9.7 17.7 0.00 0.86 0.79 89 1008.3
20260506100919 15 48 9.7 17.7 0.00 0.86 0.79 90 1008.2
20260506100527 15 58 9.7 17.7 0.00 0.86 0.79 89 1008.1
20260506100420 15 59 9.7 16.1 0.00 0.86 0.79 89 1008.2
20260506100320 15 26 8.0 16.1 0.00 0.86 0.79 90 1008.1
20260506100219 15 38 8.0 16.1 0.00 0.86 0.79 91 1008.3
20260506100121 15 360 8.0 16.1 0.00 0.86 0.79 90 1008.1
20260506100041 15 32 8.0 16.1 0.00 0.86 0.79 91 1008.1
20260506095919 15 17 8.0 16.1 0.00 0.86 0.79 91 1008.1
20260506095821 15 63 8.0 16.1 0.00 0.86 0.79 90 1008.1
20260506095719 15 65 8.0 16.1 0.00 0.86 0.79 90 1008.1
20260506095620 15 52 8.0 16.1 0.00 0.86 0.79 90 1008.1
20260506095420 15 46 6.4 14.5 0.00 0.86 0.79 90 1008.1
20260506095320 15 37 6.4 14.5 0.00 0.86 0.79 90 1008.2
20260506095219 15 24 6.4 14.5 0.00 0.86 0.79 90 1008.1
20260506095119 15 20 6.4 14.5 0.00 0.86 0.79 90 1008.2
20260506095038 15 26 6.4 14.5 0.00 0.86 0.79 90 1008.2
20260506094919 15 49 6.4 14.5 0.00 0.86 0.79 90 1008.2
20260506094821 14 5 8.0 14.5 0.00 0.86 0.79 90 1008.2
20260506094719 14 5 8.0 14.5 0.00 0.86 0.79 90 1008.1
20260506094620 14 5 8.0 14.5 0.00 0.86 0.79 89 1008.2
20260506094527 14 35 8.0 14.5 0.00 0.86 0.79 89 1008.2
20260506094420 14 62 8.0 14.5 0.00 0.86 0.79 89 1008.3
20260506094320 14 36 8.0 14.5 0.00 0.86 0.79 90 1008.2
20260506094219 14 21 8.0 14.5 0.00 0.86 0.79 90 1008.3
20260506094038 14 23 8.0 14.5 0.00 0.86 0.79 90 1008.1
20260506093919 14 34 8.0 14.5 0.00 0.86 0.79 90 1008.2
20260506093821 14 61 8.0 14.5 0.00 0.86 0.79 90 1008.1
20260506093620 14 62 9.7 16.1 0.00 0.86 0.79 90 1008.2
20260506093527 14 55 9.7 16.1 0.00 0.86 0.79 90 1008.2
20260506093420 14 42 9.7 16.1 0.00 0.86 0.79 90 1008.3
20260506093320 14 50 9.7 16.1 0.00 0.86 0.79 90 1008.2
20260506093219 14 72 9.7 16.1 0.00 0.86 0.79 89 1008.1
20260506093119 14 49 9.7 16.1 0.00 0.86 0.79 89 1008.2
20260506093038 14 49 9.7 16.1 0.00 0.86 0.79 89 1008.3
20260506092919 14 29 9.7 16.1 0.00 0.86 0.79 89 1008.3
20260506092820 14 54 9.7 16.1 0.00 0.86 0.79 88 1008.3
20260506092719 14 53 9.7 16.1 0.00 0.86 0.79 88 1008.2
20260506092620 14 55 9.7 16.1 0.00 0.86 0.79 88 1008.2
20260506092321 15 65 8.0 16.1 0.00 0.86 0.79 89 1008.2
20260506092119 15 67 6.4 16.1 0.00 0.86 0.79 88 1008.0
20260506092041 15 72 6.4 14.5 0.00 0.86 0.79 89 1008.1
20260506091919 15 79 6.4 12.9 0.00 0.86 0.79 89 1008.2
20260506091719 15 9 4.8 12.9 0.00 0.86 0.79 90 1008.2
20260506091620 15 51 4.8 12.9 0.00 0.86 0.79 89 1008.2
20260506091527 15 24 4.8 12.9 0.00 0.86 0.79 89 1008.1
20260506091420 14 18 6.4 12.9 0.00 0.86 0.79 89 1008.1
20260506091320 14 62 6.4 12.9 0.00 0.86 0.79 87 1008.2
20260506091219 14 69 6.4 12.9 0.00 0.86 0.79 88 1008.2
20260506091119 14 73 4.8 12.9 0.00 0.86 0.79 88 1008.3
20260506091038 14 80 4.8 12.9 0.00 0.86 0.79 88 1008.3
20260506090919 14 17 6.4 12.9 0.00 0.86 0.79 88 1008.3
20260506090820 14 17 6.4 12.9 0.00 0.86 0.79 88 1008.2
20260506090620 14 17 6.4 12.9 0.00 0.86 0.79 88 1008.2
20260506090527 14 25 6.4 12.9 0.00 0.86 0.79 87 1008.3
20260506090421 14 5 4.8 12.9 0.00 0.86 0.79 89 1008.2
20260506090321 15 9 4.8 11.3 0.00 0.86 0.79 90 1008.3
20260506090219 14 15 4.8 11.3 0.00 0.86 0.79 89 1008.3
20260506090008 14 344 6.4 11.3 0.00 0.86 0.79 89 1008.4
20260506085902 14 17 8.0 14.5 0.00 0.86 0.79 90 1008.2
20260506085802 13 20 8.0 14.5 0.00 0.86 0.79 90 1008.2
20260506085705 13 18 8.0 14.5 0.00 0.86 0.79 91 1008.3
20260506085603 13 29 8.0 14.5 0.03 0.86 0.79 90 1008.2
20260506085503 13 5 8.0 14.5 0.03 0.86 0.79 90 1008.2
20260506085402 13 40 8.0 14.5 0.03 0.86 0.79 89 1008.2
20260506085306 13 42 8.0 14.5 0.03 0.86 0.79 89 1008.3
20260506085102 13 58 8.0 14.5 0.03 0.86 0.79 89 1008.2
20260506085003 13 65 8.0 14.5 0.03 0.86 0.79 89 1008.3
20260506084905 13 59 8.0 14.5 0.03 0.86 0.79 89 1008.3
20260506084802 13 70 8.0 14.5 0.03 0.86 0.79 89 1008.2
20260506084702 13 13 8.0 14.5 0.03 0.86 0.79 88 1008.3
20260506084505 13 5 8.0 14.5 0.05 0.86 0.79 89 1008.3
20260506084402 13 27 8.0 14.5 0.05 0.86 0.79 89 1008.2
20260506084303 13 29 8.0 14.5 0.05 0.86 0.79 89 1008.3
20260506084204 13 15 8.0 14.5 0.08 0.86 0.79 89 1008.3
20260506084102 13 32 8.0 14.5 0.08 0.86 0.79 89 1008.1
20260506084003 13 19 8.0 14.5 0.13 0.86 0.79 89 1008.2
20260506083902 13 355 8.0 14.5 0.13 0.86 0.79 90 1008.1
20260506083804 13 344 9.7 14.5 0.13 0.86 0.79 89 1008.1
20260506083702 13 355 8.0 14.5 0.15 0.86 0.79 90 1008.1
20260506083404 13 26 9.7 16.1 0.15 0.86 0.79 91 1008.1
20260506083302 13 17 9.7 16.1 0.15 0.86 0.79 91 1008.1
20260506083202 13 25 9.7 16.1 0.15 0.86 0.79 90 1008.0
20260506083104 13 350 9.7 16.1 0.15 0.86 0.79 90 1008.1
20260506083005 13 46 9.7 16.1 0.15 0.86 0.79 90 1008.2
20260506082902 13 47 8.0 16.1 0.18 0.86 0.79 90 1008.1
20260506082803 13 62 8.0 16.1 0.18 0.86 0.79 91 1008.1
20260506082705 13 40 8.0 14.5 0.20 0.86 0.79 91 1008.2
20260506082602 13 51 6.4 14.5 0.20 0.86 0.79 91 1008.0
20260506082421 13 51 6.4 12.9 0.20 0.86 0.79 91 1007.9
20260506082321 13 55 4.8 11.3 0.20 0.86 0.79 92 1008.0
20260506082219 13 43 4.8 9.7 0.20 0.86 0.79 91 1008.0
20260506082038 13 28 3.2 8.0 0.23 0.86 0.79 92 1008.1
20260506081919 13 51 3.2 8.0 0.23 0.86 0.79 92 1008.0
20260506081821 13 50 3.2 8.0 0.23 0.86 0.79 92 1008.0
20260506081720 12 50 1.6 8.0 0.23 0.86 0.79 92 1008.1
20260506081620 12 41 1.6 8.0 0.23 0.86 0.79 92 1008.2
20260506081529 12 117 1.6 6.4 0.23 0.86 0.79 92 1008.2
20260506081320 12 210 1.6 6.4 0.25 0.86 0.79 92 1008.2
20260506081219 12 202 1.6 4.8 0.25 0.86 0.79 92 1008.2
20260506081120 12 202 1.6 4.8 0.25 0.86 0.79 92 1008.1
20260506081044 12 202 1.6 4.8 0.25 0.86 0.79 92 1008.1
20260506080719 12 183 1.6 4.8 0.25 0.86 0.79 92 1008.1
20260506080620 12 183 1.6 8.0 0.25 0.86 0.79 91 1008.2
20260506080320 12 188 1.6 8.0 0.25 0.86 0.79 91 1008.1
20260506080220 12 189 1.6 8.0 0.25 0.86 0.79 91 1008.0
20260506080120 12 132 1.6 8.0 0.25 0.86 0.79 91 1008.0
20260506073527 12 175 1.6 4.8 0.15 0.79 0.66 93 1008.7
20260506073418 12 175 1.6 4.8 0.13 0.76 0.64 93 1008.6
20260506073218 12 175 1.6 4.8 0.13 0.76 0.64 93 1008.5
20260506073119 12 175 1.6 6.4 0.13 0.76 0.64 93 1008.4
20260506073037 12 175 3.2 8.0 0.10 0.74 0.61 93 1008.5
20260506072918 12 175 3.2 9.7 0.10 0.74 0.61 93 1008.4
20260506072721 12 74 4.8 12.9 0.08 0.71 0.61 92 1008.3
20260506072618 12 74 4.8 12.9 0.08 0.71 0.61 93 1008.3
20260506072527 12 57 6.4 12.9 0.08 0.71 0.61 92 1008.3
20260506072418 12 58 6.4 12.9 0.08 0.71 0.61 92 1008.4
20260506072319 12 63 6.4 12.9 0.08 0.71 0.61 92 1008.4
20260506072218 12 67 6.4 12.9 0.08 0.71 0.61 92 1008.3
20260506072120 12 10 8.0 12.9 0.05 0.71 0.58 92 1008.1
20260506072039 12 11 8.0 12.9 0.05 0.71 0.58 92 1008.2
20260506071919 12 60 8.0 16.1 0.05 0.69 0.56 91 1008.2
20260506071818 12 59 9.7 16.1 0.05 0.69 0.56 91 1008.2
20260506071720 12 56 9.7 22.5 0.05 0.69 0.56 91 1008.2
20260506071618 12 74 9.7 22.5 0.05 0.69 0.56 91 1008.3
20260506071529 12 93 9.7 22.5 0.03 0.66 0.53 91 1008.2
20260506071418 12 105 11.3 22.5 0.03 0.66 0.53 91 1008.2
20260506071319 12 118 11.3 22.5 0.03 0.66 0.53 91 1008.2
20260506071218 12 119 11.3 22.5 0.03 0.66 0.53 90 1008.2
20260506071119 12 66 11.3 22.5 0.03 0.66 0.53 90 1008.0
20260506071036 12 19 11.3 22.5 0.03 0.66 0.53 90 1008.0
20260506070918 12 73 11.3 22.5 0.03 0.66 0.53 90 1007.9
20260506070818 12 43 11.3 20.9 0.03 0.66 0.53 90 1007.9
20260506070618 12 46 11.3 20.9 0.03 0.66 0.53 90 1007.9
20260506070418 12 50 11.3 20.9 0.03 0.66 0.53 90 1007.9
20260506070321 12 355 11.3 20.9 0.03 0.66 0.53 90 1007.9
20260506070218 12 47 11.3 20.9 0.03 0.66 0.53 90 1007.9
20260506070126 12 342 11.3 22.5 0.03 0.66 0.53 90 1007.9
20260506062419 12 59 14.5 24.1 0.00 1.37 0.51 89 1008.2
20260506062318 12 51 14.5 24.1 0.00 1.37 0.51 89 1008.2
20260506062119 12 64 14.5 24.1 0.00 1.37 0.51 89 1008.2
20260506062038 12 29 16.1 24.1 0.00 1.37 0.51 89 1008.2
20260506061918 12 49 16.1 24.1 0.00 1.37 0.51 89 1008.1
20260506061821 12 43 16.1 24.1 0.00 1.37 0.51 88 1008.1
20260506061619 12 60 14.5 24.1 0.00 1.37 0.51 88 1008.2
20260506061526 12 51 12.9 24.1 0.00 1.37 0.51 88 1008.2
20260506061419 12 35 12.9 24.1 0.00 1.37 0.51 89 1008.1
20260506061320 12 40 12.9 24.1 0.00 1.37 0.51 89 1008.1
20260506061220 12 34 11.3 24.1 0.00 1.37 0.51 89 1008.0
20260506061119 12 51 11.3 24.1 0.00 1.37 0.51 89 1008.1
20260506061035 12 50 11.3 24.1 0.00 1.37 0.51 89 1008.1
20260506060918 12 43 11.3 24.1 0.00 1.37 0.51 89 1008.0
20260506060718 12 46 11.3 22.5 0.00 1.37 0.51 90 1007.9
20260506060619 12 38 11.3 22.5 0.00 1.37 0.51 90 1008.1
20260506060526 12 32 11.3 22.5 0.00 1.37 0.51 90 1008.1
20260506060419 12 61 11.3 22.5 0.00 1.37 0.51 90 1008.1
20260506060119 12 63 12.9 22.5 0.00 1.37 0.51 89 1008.2
20260506051403 11 129 4.8 9.7 0.03 1.68 0.51 94 1009.4
20260506051302 11 85 4.8 12.9 0.03 1.68 0.51 94 1009.3
20260506051201 11 85 4.8 12.9 0.03 1.68 0.51 94 1009.3
20260506051101 11 85 6.4 12.9 0.03 1.68 0.51 94 1009.3
20260506050901 11 66 6.4 14.5 0.03 1.68 0.51 94 1009.2
20260506050801 11 80 6.4 14.5 0.03 1.68 0.51 95 1009.2
20260506050701 11 173 6.4 14.5 0.03 1.68 0.51 95 1009.2
20260506050501 11 159 6.4 14.5 0.03 1.68 0.51 95 1009.2
20260506050303 11 5 4.8 14.5 0.03 1.68 0.51 95 1009.2
20260506050202 10 60 4.8 14.5 0.03 1.68 0.51 95 1009.1
20260506050105 10 28 4.8 14.5 0.03 1.68 0.51 96 1009.1
20260506045101 10 44 4.8 9.7 0.03 1.93 0.51 96 1009.3
20260506045001 10 46 6.4 9.7 0.03 1.93 0.51 96 1009.4
20260506044901 10 62 6.4 9.7 0.03 1.93 0.51 97 1009.5
20260506044701 10 82 6.4 17.7 0.00 1.91 0.51 97 1009.5
20260506044601 10 71 6.4 17.7 0.03 1.91 0.51 97 1009.5
20260506044501 10 76 6.4 17.7 0.03 1.91 0.51 97 1009.6
20260506044404 10 81 6.4 17.7 0.03 1.91 0.51 97 1009.6
20260506044301 10 75 6.4 17.7 0.03 1.91 0.51 97 1009.6
20260506044201 10 62 6.4 17.7 0.03 1.91 0.51 97 1009.6
20260506044002 10 126 6.4 17.7 0.03 1.91 0.51 97 1009.6
20260506043901 10 102 4.8 17.7 0.03 1.91 0.51 97 1009.6
20260506043703 10 75 4.8 12.9 0.03 1.91 0.51 97 1009.5
20260506043501 10 74 4.8 12.9 0.03 1.91 0.51 97 1009.5
20260506043302 10 67 3.2 12.9 0.03 1.91 0.51 97 1009.5
20260506043201 10 67 1.6 11.3 0.03 1.91 0.51 97 1009.5
20260506043101 10 78 1.6 11.3 0.05 1.91 0.51 97 1009.6
20260506042901 10 76 1.6 8.0 0.05 1.91 0.51 97 1009.7
20260506042801 10 200 1.6 4.8 0.05 1.91 0.51 97 1009.7
20260506042501 10 137 0.0 4.8 0.05 1.91 0.51 97 1009.8
20260506042401 10 186 1.6 4.8 0.05 1.91 0.51 97 1009.8
20260506042305 10 186 1.6 4.8 0.05 1.91 0.51 97 1009.8
20260506042204 10 186 1.6 4.8 0.05 1.91 0.51 97 1009.8
20260506042101 10 182 1.6 3.2 0.05 1.91 0.51 97 1009.8
20260506042002 10 182 1.6 3.2 0.05 1.91 0.51 97 1009.8
20260506041903 10 182 1.6 3.2 0.05 1.91 0.51 97 1009.8
20260506041801 10 182 1.6 3.2 0.05 1.91 0.51 97 1009.8
20260506041603 10 182 1.6 3.2 0.08 1.91 0.51 97 1009.6
20260506041301 10 182 0.0 3.2 0.08 1.91 0.51 97 1009.8
20260506040901 10 182 1.6 3.2 0.10 1.91 0.51 97 1009.8
20260506040803 10 182 1.6 3.2 0.10 1.91 0.51 97 1009.9
20260506040701 10 182 1.6 3.2 0.13 1.91 0.51 97 1010.0
20260506040601 10 182 1.6 3.2 0.13 1.91 0.51 97 1010.0
20260506040501 10 182 3.2 3.2 0.13 1.91 0.51 97 1010.0
20260506040404 10 182 3.2 4.8 0.13 1.91 0.51 97 1010.0
20260506040301 10 182 3.2 4.8 0.15 1.91 0.51 97 1010.0
20260506040201 10 182 3.2 4.8 0.15 1.91 0.51 97 1010.1
20260506040009 10 182 3.2 4.8 0.15 1.91 0.51 97 1010.1
20260506035901 10 182 3.2 4.8 0.15 2.03 0.51 97 1010.1
20260506035704 10 180 3.2 4.8 0.15 2.03 0.51 97 1010.0
20260506035601 10 180 3.2 6.4 0.15 2.03 0.51 97 1010.0
20260506035501 10 179 3.2 6.4 0.15 2.03 0.51 97 1010.1
20260506035402 10 167 3.2 6.4 0.15 2.03 0.51 97 1010.1
20260506035201 10 102 3.2 6.4 0.15 2.03 0.51 97 1010.0
20260506035101 10 49 3.2 6.4 0.15 2.03 0.51 97 1009.9
20260506035002 10 52 3.2 6.4 0.15 2.03 0.51 97 1009.9
20260506034903 10 53 3.2 6.4 0.15 2.03 0.51 97 1009.8
20260506034801 10 53 3.2 6.4 0.15 2.03 0.51 97 1009.8
20260506034703 10 51 3.2 6.4 0.15 2.03 0.51 97 1009.7
20260506034601 10 17 3.2 4.8 0.15 2.01 0.48 97 1009.7
20260506034501 10 344 3.2 6.4 0.15 2.01 0.48 97 1010.0
20260506034401 10 198 3.2 6.4 0.15 2.01 0.48 97 1010.0
20260506034303 10 198 3.2 6.4 0.15 2.01 0.48 97 1010.1
20260506034202 10 198 4.8 6.4 0.15 2.01 0.48 97 1010.3
20260506034101 10 198 4.8 6.4 0.15 2.01 0.48 97 1010.3
20260506034002 10 198 4.8 8.0 0.15 2.01 0.48 97 1010.3
20260506033801 10 198 4.8 8.0 0.15 2.01 0.48 97 1010.4
20260506033701 10 196 3.2 8.0 0.18 2.01 0.48 97 1010.3
20260506033502 10 190 3.2 8.0 0.18 2.01 0.48 97 1010.3
20260506033301 10 184 1.6 8.0 0.20 2.01 0.48 97 1010.3
20260506033101 9 180 0.0 8.0 0.20 1.98 0.46 97 1010.2
20260506033002 9 180 0.0 4.8 0.20 1.98 0.46 97 1010.2
20260506032903 9 134 0.0 1.6 0.23 1.98 0.46 97 1010.1
20260506032803 9 134 0.0 3.2 0.23 1.98 0.46 97 1010.1
20260506032701 9 134 0.0 3.2 0.23 1.98 0.46 97 1010.1
20260506032601 9 134 0.0 3.2 0.23 1.98 0.46 97 1010.2
20260506032503 9 134 0.0 3.2 0.23 1.98 0.46 97 1010.2
20260506032401 9 134 0.0 3.2 0.23 1.98 0.46 97 1010.0
20260506032301 9 134 0.0 3.2 0.23 1.96 0.43 97 1010.1
20260506032203 9 134 0.0 3.2 0.23 1.96 0.43 97 1010.0
20260506032103 9 134 0.0 3.2 0.23 1.96 0.43 97 1010.1
20260506032001 9 134 0.0 3.2 0.23 1.96 0.43 97 1010.0
20260506031901 9 132 0.0 3.2 0.25 1.96 0.43 97 1010.2
20260506031803 9 132 0.0 0.0 0.25 1.96 0.43 97 1010.2
20260506031701 9 132 0.0 0.0 0.25 1.93 0.43 97 1010.1
20260506031601 9 132 1.6 3.2 0.25 1.93 0.43 97 1010.2
20260506031501 9 132 1.6 4.8 0.28 1.93 0.43 97 1010.2
20260506031403 9 132 1.6 4.8 0.30 1.93 0.43 97 1010.2
20260506031005 9 132 1.6 4.8 0.30 1.93 0.41 97 1010.4
20260506030901 9 132 1.6 4.8 0.30 1.93 0.41 97 1010.3
20260506030801 9 132 1.6 4.8 0.33 1.93 0.41 97 1010.4
20260506030702 9 132 1.6 4.8 0.30 1.91 0.38 97 1010.4
20260506030603 9 132 1.6 4.8 0.30 1.91 0.38 97 1010.4
20260506030501 9 132 1.6 4.8 0.30 1.91 0.38 97 1010.3
20260506030403 9 76 1.6 4.8 0.33 1.91 0.38 97 1010.4
20260506030202 9 76 3.2 4.8 0.30 1.88 0.36 97 1010.3
20260506030007 9 76 1.6 4.8 0.33 1.88 0.36 97 1010.4
20260506025903 9 78 1.6 4.8 0.33 1.88 0.36 97 1010.5
20260506025802 9 190 1.6 4.8 0.33 1.88 0.36 97 1010.6
20260506025601 9 190 1.6 4.8 0.33 1.88 0.36 97 1010.7
20260506025403 9 190 1.6 4.8 0.33 1.88 0.36 97 1010.6
20260506025301 9 190 1.6 4.8 0.33 1.88 0.36 97 1010.6
20260506025203 9 190 1.6 4.8 0.33 1.88 0.36 97 1010.6
20260506025101 9 190 0.0 4.8 0.36 1.88 0.36 97 1010.7
20260506025001 9 192 0.0 4.8 0.36 1.88 0.36 97 1010.8
20260506024901 9 192 0.0 4.8 0.33 1.85 0.33 97 1010.7
20260506024803 9 193 0.0 4.8 0.33 1.85 0.33 97 1010.7
20260506024702 9 200 0.0 0.0 0.33 1.85 0.33 96 1010.6
20260506024601 9 200 0.0 0.0 0.33 1.85 0.33 96 1010.6
20260506024501 9 200 0.0 0.0 0.33 1.85 0.33 96 1010.6
20260506024403 9 200 0.0 0.0 0.33 1.85 0.33 96 1010.6
20260506024301 9 200 0.0 0.0 0.33 1.85 0.33 97 1010.7
20260506024201 9 200 0.0 0.0 0.33 1.83 0.33 97 1010.6
20260506024102 9 200 0.0 0.0 0.33 1.83 0.33 97 1010.6
20260506024004 9 200 0.0 0.0 0.33 1.83 0.33 97 1010.6
20260506023901 9 200 0.0 0.0 0.33 1.83 0.33 96 1010.5
20260506023703 9 200 0.0 0.0 0.30 1.83 0.30 97 1010.5
20260506023601 9 200 0.0 0.0 0.30 1.83 0.30 97 1010.6
20260506023501 9 200 0.0 0.0 0.30 1.83 0.30 97 1010.7
20260506023402 9 200 0.0 0.0 0.28 1.80 0.28 97 1010.7
20260506023304 9 200 0.0 0.0 0.28 1.80 0.28 96 1010.6
20260506022901 9 200 0.0 0.0 0.23 1.75 0.23 97 1010.8
20260506022801 9 200 0.0 0.0 0.23 1.75 0.23 97 1010.9
20260506022703 9 200 0.0 0.0 0.23 1.75 0.23 97 1010.8
20260506022601 9 200 0.0 0.0 0.23 1.75 0.23 96 1010.8
20260506022501 9 200 0.0 0.0 0.23 1.75 0.23 96 1010.9
20260506022402 9 200 0.0 0.0 0.23 1.75 0.23 96 1010.9
20260506022305 9 200 0.0 0.0 0.20 1.73 0.20 96 1011.0
20260506022201 9 200 0.0 0.0 0.20 1.73 0.20 96 1011.0
20260506022101 9 200 0.0 0.0 0.20 1.73 0.20 96 1011.0
20260506022004 9 200 0.0 0.0 0.20 1.73 0.20 96 1011.1
20260506021901 9 200 0.0 0.0 0.18 1.70 0.18 96 1011.0
20260506021703 9 200 0.0 0.0 0.15 1.68 0.15 97 1011.0
20260506021501 9 200 0.0 0.0 0.15 1.65 0.15 97 1011.0
20260506021303 9 200 0.0 1.6 0.13 1.65 0.13 97 1011.1
20260506021201 9 200 0.0 1.6 0.13 1.65 0.13 97 1011.1
20260506021101 9 200 0.0 1.6 0.10 1.63 0.10 97 1011.1
20260506021004 8 200 0.0 1.6 0.10 1.63 0.10 97 1011.1
20260506020903 8 200 0.0 1.6 0.10 1.63 0.10 97 1011.1
20260506020801 8 200 0.0 1.6 0.08 1.60 0.08 97 1011.1
20260506020603 8 200 0.0 1.6 0.08 1.60 0.08 97 1011.1
20260506020501 8 200 0.0 1.6 0.08 1.60 0.08 96 1011.1
20260506020401 8 200 0.0 1.6 0.05 1.57 0.05 97 1011.1
20260506020303 8 200 0.0 1.6 0.05 1.57 0.05 97 1011.2
20260506020203 8 200 0.0 1.6 0.05 1.57 0.05 97 1011.2
20260506020005 8 200 0.0 3.2 0.05 1.55 0.05 96 1011.2
20260506015903 8 200 0.0 3.2 0.05 1.55 0.05 96 1011.2
20260506015801 8 200 0.0 3.2 0.05 1.55 0.05 96 1011.2
20260506015701 8 200 0.0 3.2 0.05 1.55 0.05 96 1011.1
20260506015603 8 200 0.0 3.2 0.05 1.55 0.05 96 1011.1
20260506015502 8 200 0.0 3.2 0.03 1.55 0.03 96 1011.2
20260506015401 8 200 0.0 3.2 0.03 1.55 0.03 96 1011.2
20260506015204 8 200 0.0 3.2 0.03 1.55 0.03 96 1011.2
20260506015102 8 200 0.0 1.6 0.00 1.52 0.00 96 1011.2
20260506015002 8 200 0.0 1.6 0.00 1.52 0.00 96 1011.2
20260506014905 8 200 0.0 1.6 0.00 1.52 0.00 96 1011.3
20260506014802 8 200 1.6 1.6 0.00 1.52 0.00 96 1011.2
20260506014701 8 200 1.6 4.8 0.00 1.52 0.00 96 1011.2
20260506014504 8 200 1.6 4.8 0.00 1.52 0.00 96 1011.1
20260506014402 8 200 1.6 4.8 0.00 1.52 0.00 96 1011.1
20260506014302 8 200 1.6 4.8 0.00 1.52 0.00 96 1011.2
20260506014203 8 200 1.6 4.8 0.00 1.52 0.00 96 1011.1
20260506014102 8 200 1.6 4.8 0.00 1.52 0.00 96 1011.1
20260506013901 8 200 1.6 6.4 0.00 1.52 0.00 96 1011.1
20260506013804 8 190 1.6 6.4 0.00 1.52 0.00 96 1011.0
20260506013701 8 163 1.6 6.4 0.00 1.52 0.00 96 1011.0
20260506013602 8 113 1.6 6.4 0.00 1.52 0.00 97 1010.9
20260506013404 8 113 1.6 6.4 0.00 1.52 0.00 96 1010.9
20260506013301 8 113 1.6 6.4 0.00 1.52 0.00 96 1011.0
20260506013202 8 113 1.6 6.4 0.00 1.52 0.00 96 1011.0
20260506013103 8 121 0.0 4.8 0.00 1.52 0.00 96 1011.0
20260506013002 8 124 0.0 4.8 0.00 1.52 0.00 96 1011.0
20260506012902 8 175 0.0 1.6 0.00 1.52 0.00 96 1011.0
20260506012802 8 274 0.0 1.6 0.00 1.52 0.00 96 1011.1
20260506012602 8 274 0.0 1.6 0.00 1.52 0.00 96 1011.1
20260506012501 8 274 0.0 1.6 0.00 1.52 0.00 96 1011.2
20260506012402 8 268 0.0 0.0 0.00 1.52 0.00 96 1011.3
20260506012307 8 124 0.0 0.0 0.00 1.52 0.00 96 1011.2
20260506012201 8 124 0.0 0.0 0.00 1.52 0.00 96 1011.1
20260506012102 8 124 0.0 0.0 0.00 1.52 0.00 96 1011.2
20260506012002 8 124 0.0 0.0 0.00 1.52 0.00 96 1011.2
20260506011903 8 124 0.0 0.0 0.00 1.52 0.00 96 1011.1
20260506011802 8 124 0.0 0.0 0.00 1.52 0.00 96 1011.3
20260506011502 8 124 0.0 0.0 0.00 1.52 0.00 96 1011.3
20260506011402 8 124 0.0 0.0 0.00 1.52 0.00 96 1011.3
20260506011301 8 124 0.0 0.0 0.00 1.52 0.00 96 1011.2
20260506011203 8 124 0.0 0.0 0.00 1.52 0.00 96 1011.3
20260506011002 8 124 0.0 0.0 0.00 1.52 0.00 96 1011.4
20260506010901 8 124 0.0 0.0 0.00 1.52 0.00 96 1011.2
20260506010804 8 124 0.0 0.0 0.00 1.52 0.00 96 1011.3
20260506010701 8 124 0.0 0.0 0.00 1.52 0.00 96 1011.3
20260506010601 8 124 0.0 0.0 0.00 1.52 0.00 96 1011.4
20260506010403 8 124 0.0 0.0 0.00 1.52 0.00 96 1011.5
20260506010302 8 124 0.0 0.0 0.00 1.52 0.00 96 1011.4
20260506010201 8 124 0.0 0.0 0.00 1.52 0.00 96 1011.3
20260506005801 8 124 0.0 0.0 0.00 1.52 0.00 96 1011.3
20260506005501 8 124 0.0 0.0 0.00 1.52 0.00 96 1011.4
20260506005400 8 124 0.0 0.0 0.00 1.52 0.00 96 1011.3
20260506005305 8 124 0.0 0.0 0.00 1.52 0.00 96 1011.3
20260506005200 8 124 0.0 0.0 0.00 1.52 0.00 96 1011.4
20260506005100 8 126 0.0 0.0 0.00 1.52 0.00 96 1011.3
20260506005001 8 127 0.0 0.0 0.00 1.52 0.00 96 1011.3
20260506004700 8 127 1.6 3.2 0.00 1.52 0.00 96 1011.3
20260506004602 8 127 1.6 4.8 0.00 1.52 0.00 96 1011.2
20260506004500 8 127 1.6 4.8 0.00 1.52 0.00 96 1011.3
20260506004400 8 127 1.6 4.8 0.00 1.52 0.00 96 1011.3
20260506004203 8 127 1.6 4.8 0.00 1.52 0.00 96 1011.4
20260506004100 8 127 1.6 4.8 0.00 1.52 0.00 96 1011.3
20260506003900 8 127 1.6 4.8 0.00 1.52 0.00 96 1011.5
20260506003803 8 127 0.0 4.8 0.00 1.52 0.00 96 1011.4
20260506003701 8 127 0.0 4.8 0.00 1.52 0.00 95 1011.6
20260506003600 8 127 0.0 4.8 0.00 1.52 0.00 95 1011.3
20260506003501 8 127 0.0 3.2 0.00 1.52 0.00 96 1011.3
20260506003402 8 126 0.0 3.2 0.00 1.52 0.00 96 1011.3
20260506003300 8 126 0.0 4.8 0.00 1.52 0.00 96 1011.2
20260506003102 8 126 0.0 4.8 0.00 1.52 0.00 96 1011.2
20260506003001 8 126 0.0 4.8 0.00 1.52 0.00 96 1011.2
20260506002800 8 126 0.0 4.8 0.00 1.52 0.00 96 1011.1
20260506002703 8 126 0.0 4.8 0.00 1.52 0.00 96 1011.2
20260506002600 8 126 0.0 4.8 0.00 1.52 0.00 96 1011.3
20260506002501 8 126 0.0 4.8 0.00 1.52 0.00 96 1011.2
20260506002400 8 142 0.0 3.2 0.00 1.52 0.00 96 1011.3
20260506002306 8 190 0.0 0.0 0.00 1.52 0.00 96 1011.3
20260506002201 8 190 0.0 0.0 0.00 1.52 0.00 96 1011.4
20260506002001 8 190 0.0 0.0 0.00 1.52 0.00 96 1011.5
20260506001902 8 191 0.0 0.0 0.00 1.52 0.00 96 1011.5
20260506001800 8 191 0.0 0.0 0.00 1.52 0.00 96 1011.3
20260506001702 8 190 0.0 0.0 0.00 1.52 0.00 96 1011.4
20260506001600 8 191 0.0 0.0 0.00 1.52 0.00 96 1011.3
20260506001503 8 190 0.0 0.0 0.00 1.52 0.00 96 1011.4
20260506001400 8 190 0.0 0.0 0.00 1.52 0.00 96 1011.3
20260506001303 8 190 0.0 0.0 0.00 1.52 0.00 96 1011.5
20260506001200 8 190 0.0 0.0 0.00 1.52 0.00 96 1011.5
20260506001103 8 190 0.0 0.0 0.00 1.52 0.00 96 1011.5
20260506001001 8 190 0.0 0.0 0.00 1.52 0.00 96 1011.8
20260506000902 8 190 0.0 0.0 0.00 1.52 0.00 96 1011.7
20260506000802 8 190 0.0 0.0 0.00 1.52 0.00 96 1011.7
20260506000700 8 192 0.0 0.0 0.00 1.52 0.00 96 1011.8
20260506000600 8 192 0.0 0.0 0.00 1.52 0.00 96 1011.8
20260506000500 8 192 0.0 0.0 0.00 1.52 0.00 96 1011.9
20260506000402 8 192 0.0 0.0 0.00 1.52 0.00 96 1011.8
20260506000302 8 192 0.0 0.0 0.00 1.52 0.00 96 1011.9
20260506000204 8 192 0.0 0.0 0.00 1.52 0.00 96 1011.8
20260506000100 8 192 0.0 0.0 0.00 1.52 0.00 96 1011.8
20260506000007 8 192 0.0 0.0 0.00 1.52 0.00 96 1011.8
20260505235800 8 192 0.0 0.0 0.00 1.52 0.00 96 1011.8
20260505235702 8 192 0.0 0.0 0.00 1.52 0.00 96 1011.8
20260505235600 8 192 0.0 0.0 0.00 1.52 0.00 96 1011.8
20260505235501 8 192 0.0 0.0 0.00 1.52 0.00 95 1011.9
20260505235400 8 192 0.0 0.0 0.00 1.52 0.00 96 1011.9
20260505235305 8 192 0.0 0.0 0.00 1.52 0.00 96 1012.0
20260505235202 8 192 0.0 0.0 0.00 1.52 0.00 96 1012.1
20260505235100 8 192 0.0 0.0 0.00 1.52 0.00 96 1012.0
20260505234902 8 192 0.0 0.0 0.00 1.52 0.00 96 1012.0
20260505234800 8 192 0.0 0.0 0.00 1.52 0.00 96 1012.0
20260505234700 8 192 0.0 0.0 0.00 1.52 0.00 96 1012.0
20260505234600 8 192 0.0 0.0 0.00 1.52 0.00 95 1012.0
20260505234504 8 192 0.0 0.0 0.00 1.52 0.00 95 1012.1
20260505234401 8 192 0.0 0.0 0.00 1.52 0.00 95 1012.0
20260505234300 8 192 0.0 0.0 0.00 1.52 0.00 95 1012.0
20260505234202 8 192 0.0 0.0 0.00 1.52 0.00 95 1012.0
20260505234102 8 192 0.0 0.0 0.00 1.52 0.00 95 1012.1
20260505233900 8 192 0.0 0.0 0.00 1.52 0.00 95 1012.0
20260505233803 8 192 0.0 0.0 0.00 1.52 0.00 95 1012.1
20260505233700 8 192 0.0 0.0 0.00 1.52 0.00 95 1012.1
20260505233600 8 192 0.0 0.0 0.00 1.52 0.00 95 1012.1
20260505233503 8 192 0.0 0.0 0.00 1.52 0.00 95 1012.2
20260505233401 8 192 0.0 0.0 0.00 1.52 0.00 95 1012.1
20260505233300 8 192 0.0 0.0 0.00 1.52 0.00 95 1012.3
20260505233200 8 192 0.0 0.0 0.00 1.52 0.00 95 1012.2
20260505233102 8 192 0.0 0.0 0.00 1.52 0.00 95 1012.3
20260505233001 8 192 0.0 0.0 0.00 1.52 0.00 95 1012.3
20260505232901 8 192 0.0 0.0 0.00 1.52 0.00 95 1012.3
20260505232802 8 192 0.0 0.0 0.00 1.52 0.00 95 1012.4
20260505232702 8 192 0.0 0.0 0.00 1.52 0.00 95 1012.3
20260505232601 8 192 0.0 0.0 0.00 1.52 0.00 95 1012.3
20260505232500 8 192 0.0 0.0 0.00 1.52 0.00 95 1012.4
20260505232403 8 192 0.0 0.0 0.00 1.52 0.00 95 1012.3
20260505232300 8 192 0.0 0.0 0.00 1.52 0.00 95 1012.4
20260505232200 8 192 0.0 0.0 0.00 1.52 0.00 95 1012.3
20260505232100 8 192 0.0 0.0 0.00 1.52 0.00 95 1012.4
20260505232004 8 192 0.0 0.0 0.00 1.52 0.00 95 1012.4
20260505231800 8 192 0.0 0.0 0.00 1.52 0.00 95 1012.4
20260505231701 8 192 0.0 0.0 0.00 1.52 0.00 95 1012.2
20260505231602 8 192 0.0 0.0 0.00 1.52 0.00 95 1012.3
20260505231500 8 192 0.0 0.0 0.00 1.52 0.00 95 1012.3
20260505231402 8 192 0.0 0.0 0.00 1.52 0.00 95 1012.3
20260505231300 8 192 0.0 0.0 0.00 1.52 0.00 95 1012.3
20260505231202 8 192 0.0 0.0 0.00 1.52 0.00 95 1012.3
20260505231100 8 192 0.0 0.0 0.00 1.52 0.00 95 1012.2
20260505231001 8 192 0.0 0.0 0.00 1.52 0.00 95 1012.2
20260505230900 8 192 0.0 0.0 0.00 1.52 0.00 95 1012.2
20260505230802 8 192 0.0 0.0 0.00 1.52 0.00 95 1012.1
20260505230702 8 192 0.0 0.0 0.00 1.52 0.00 95 1012.2
20260505230600 8 192 0.0 0.0 0.00 1.52 0.00 95 1012.1
20260505230500 8 192 0.0 0.0 0.00 1.52 0.00 95 1012.1
20260505230403 8 192 0.0 0.0 0.00 1.52 0.00 95 1012.3
20260505230300 8 192 0.0 0.0 0.00 1.52 0.00 94 1012.3
20260505225904 8 192 0.0 0.0 0.00 1.52 0.00 94 1012.2
20260505225803 8 192 0.0 0.0 0.00 1.52 0.00 94 1012.3
20260505225706 8 192 0.0 0.0 0.00 1.52 0.00 94 1012.2
20260505225504 8 192 0.0 0.0 0.00 1.52 0.00 94 1012.3
20260505225405 8 192 0.0 0.0 0.00 1.52 0.00 94 1012.3
20260505225103 8 192 0.0 0.0 0.00 1.52 0.00 94 1012.3
20260505225004 8 192 0.0 0.0 0.00 1.52 0.00 94 1012.3
20260505224805 8 192 0.0 1.6 0.00 1.52 0.00 94 1012.4
20260505224704 8 192 0.0 3.2 0.00 1.52 0.00 94 1012.5
20260505224603 8 192 0.0 3.2 0.00 1.52 0.00 94 1012.4
20260505224503 8 192 1.6 4.8 0.00 1.52 0.00 94 1012.3
20260505224405 8 192 1.6 4.8 0.00 1.52 0.00 94 1012.3
20260505224104 8 192 1.6 4.8 0.00 1.52 0.00 94 1012.4
20260505224004 8 192 1.6 4.8 0.00 1.52 0.00 94 1012.5
20260505223805 8 192 3.2 4.8 0.00 1.52 0.00 94 1012.5
20260505223704 8 192 3.2 4.8 0.00 1.52 0.00 94 1012.5
20260505223603 8 192 3.2 4.8 0.00 1.52 0.00 94 1012.5
20260505223503 9 192 3.2 4.8 0.00 1.52 0.00 94 1012.4
20260505223405 9 192 3.2 6.4 0.00 1.52 0.00 94 1012.4
20260505223303 9 192 3.2 6.4 0.00 1.52 0.00 94 1012.5
20260505223203 9 192 3.2 6.4 0.00 1.52 0.00 94 1012.4
20260505223105 9 192 3.2 6.4 0.00 1.52 0.00 94 1012.5
20260505223006 9 192 3.2 6.4 0.00 1.52 0.00 94 1012.4
20260505222903 9 192 3.2 6.4 0.00 1.52 0.00 94 1012.4
20260505222803 9 192 3.2 6.4 0.00 1.52 0.00 94 1012.5
20260505222706 9 192 3.2 6.4 0.00 1.52 0.00 94 1012.5
20260505222604 9 200 3.2 6.4 0.00 1.52 0.00 94 1012.5
20260505222504 9 203 3.2 6.4 0.00 1.52 0.00 94 1012.5
20260505222406 9 203 3.2 6.4 0.00 1.52 0.00 94 1012.5
20260505222306 10 203 1.6 6.4 0.00 1.52 0.00 94 1012.5
20260505222203 10 189 1.6 6.4 0.00 1.52 0.00 94 1012.6
20260505222103 10 189 1.6 6.4 0.00 1.52 0.00 94 1012.5
20260505222004 10 189 1.6 6.4 0.00 1.52 0.00 94 1012.5
20260505221905 10 189 1.6 6.4 0.00 1.52 0.00 95 1012.5
20260505221803 10 188 3.2 6.4 0.00 1.52 0.00 95 1012.5
20260505221704 10 188 3.2 8.0 0.00 1.52 0.00 95 1012.5
20260505221603 10 188 3.2 8.0 0.00 1.52 0.00 95 1012.4
20260505221505 10 188 4.8 8.0 0.00 1.52 0.00 95 1012.4
20260505221405 10 188 4.8 8.0 0.00 1.52 0.00 95 1012.5
20260505221303 10 188 6.4 8.0 0.00 1.52 0.00 95 1012.4
20260505221203 10 188 6.4 8.0 0.00 1.52 0.00 95 1012.4
20260505221106 10 188 6.4 8.0 0.00 1.52 0.00 95 1012.5
20260505221004 10 188 6.4 8.0 0.00 1.52 0.00 95 1012.4
20260505220903 10 191 6.4 8.0 0.00 1.52 0.00 95 1012.4
20260505220805 10 191 6.4 8.0 0.00 1.52 0.00 95 1012.5
20260505220704 10 190 4.8 8.0 0.00 1.52 0.00 95 1012.5
20260505220503 10 192 4.8 8.0 0.00 1.52 0.00 95 1012.5
20260505220303 10 200 4.8 9.7 0.00 1.52 0.00 95 1012.5
20260505220205 10 207 6.4 11.3 0.00 1.52 0.00 95 1012.5
20260505220103 10 213 6.4 11.3 0.00 1.52 0.00 95 1012.6
20260505220010 10 210 6.4 11.3 0.00 1.52 0.00 95 1012.6
20260505215903 10 214 8.0 11.3 0.00 1.52 1.52 94 1012.6
20260505215803 10 216 8.0 11.3 0.00 1.52 1.52 94 1012.6
20260505215706 10 204 8.0 11.3 0.00 1.52 1.52 94 1012.7
20260505215603 10 194 8.0 11.3 0.00 1.52 1.52 94 1012.7
20260505215503 10 190 8.0 11.3 0.00 1.52 1.52 94 1012.7
20260505215305 10 185 6.4 11.3 0.00 1.52 1.52 94 1012.7
20260505215203 10 188 6.4 11.3 0.00 1.52 1.52 94 1012.6
20260505215103 10 190 6.4 11.3 0.00 1.52 1.52 94 1012.6
20260505215004 10 191 4.8 11.3 0.00 1.52 1.52 94 1012.7
20260505214905 10 188 4.8 8.0 0.00 1.52 1.52 94 1012.7
20260505214805 10 202 4.8 8.0 0.00 1.52 1.52 94 1012.6
20260505214705 10 174 4.8 9.7 0.00 1.52 1.52 94 1012.7
20260505214603 10 186 4.8 6.4 0.00 1.52 1.52 94 1012.7
20260505214503 10 188 3.2 6.4 0.00 1.52 1.52 94 1012.7
20260505214405 11 188 3.2 6.4 0.00 1.52 1.52 94 1012.6
20260505214103 11 197 3.2 4.8 0.00 1.52 1.52 94 1012.6
20260505214004 11 198 3.2 4.8 0.00 1.52 1.52 94 1012.7
20260505213904 11 198 3.2 4.8 0.00 1.52 1.52 95 1012.8
20260505213805 11 198 1.6 4.8 0.00 1.52 1.52 95 1012.7
20260505213603 11 198 1.6 4.8 0.00 1.52 1.52 95 1012.8
20260505213503 11 198 1.6 4.8 0.00 1.52 1.52 95 1012.8
20260505213405 11 198 1.6 4.8 0.00 1.52 1.52 95 1012.8
20260505213303 11 198 3.2 4.8 0.00 1.52 1.52 95 1012.9
20260505213203 11 198 3.2 4.8 0.00 1.52 1.52 95 1012.8
20260505213105 11 198 1.6 4.8 0.00 1.52 1.52 95 1012.8
20260505212920 11 198 1.6 6.4 0.00 1.52 1.52 95 1012.9
20260505212820 11 199 1.6 6.4 0.00 1.52 1.52 95 1013.0
20260505212722 11 200 1.6 6.4 0.00 1.52 1.52 95 1012.9
20260505212530 11 200 1.6 6.4 0.00 1.52 1.52 95 1012.9
20260505212420 11 200 1.6 6.4 0.00 1.52 1.52 95 1012.9
20260505212321 11 200 1.6 6.4 0.00 1.52 1.52 95 1012.9
20260505212220 11 200 0.0 6.4 0.00 1.52 1.52 95 1012.9
20260505212122 11 200 0.0 6.4 0.00 1.52 1.52 95 1012.9
20260505212038 11 202 0.0 0.0 0.00 1.52 1.52 95 1012.8
20260505211722 11 202 0.0 0.0 0.00 1.52 1.52 95 1013.0
20260505211620 11 202 0.0 3.2 0.00 1.52 1.52 95 1012.9
20260505211530 11 202 0.0 3.2 0.00 1.52 1.52 96 1012.8
20260505211420 11 202 1.6 4.8 0.00 1.52 1.52 96 1012.8
20260505211321 11 202 1.6 4.8 0.00 1.52 1.52 96 1013.1
20260505211220 11 202 1.6 6.4 0.00 1.52 1.52 96 1012.9
20260505211122 11 203 1.6 6.4 0.00 1.52 1.52 96 1013.0
20260505211038 11 203 3.2 6.4 0.00 1.52 1.52 96 1013.0
20260505210921 11 203 3.2 6.4 0.00 1.52 1.52 96 1013.1
20260505210820 11 203 3.2 6.4 0.00 1.52 1.52 96 1013.0
20260505210722 11 203 3.2 6.4 0.00 1.52 1.52 96 1012.9
20260505210620 11 203 3.2 6.4 0.00 1.52 1.52 96 1013.0
20260505210530 11 203 3.2 6.4 0.00 1.52 1.52 96 1012.9
20260505210420 11 203 3.2 6.4 0.00 1.52 1.52 96 1012.9
20260505210322 11 194 3.2 6.4 0.00 1.52 1.52 96 1013.0
20260505210122 11 194 3.2 6.4 0.00 1.52 1.52 96 1013.1
20260505210041 11 190 1.6 6.4 0.00 1.52 1.52 96 1013.0
20260505205920 11 192 1.6 6.4 0.00 1.52 1.52 96 1013.0
20260505205822 11 192 1.6 6.4 0.00 1.52 1.52 96 1013.1
20260505205722 11 192 1.6 6.4 0.00 1.52 1.52 96 1013.0
20260505205620 11 192 1.6 6.4 0.00 1.52 1.52 96 1012.8
20260505205528 11 192 0.0 6.4 0.00 1.52 1.52 96 1012.9
20260505205422 11 198 0.0 4.8 0.00 1.52 1.52 96 1012.9
20260505205322 11 209 0.0 1.6 0.00 1.52 1.52 96 1013.1
20260505205220 11 209 0.0 1.6 0.00 1.52 1.52 96 1013.0
20260505205038 11 209 1.6 4.8 0.00 1.52 1.52 96 1013.0
20260505204922 11 209 1.6 4.8 0.00 1.52 1.52 96 1013.0
20260505204820 11 209 1.6 6.4 0.00 1.52 1.52 96 1013.1
20260505204620 11 209 1.6 6.4 0.00 1.52 1.52 96 1013.0
20260505204530 11 209 1.6 6.4 0.00 1.52 1.52 96 1013.2
20260505204421 11 209 1.6 6.4 0.00 1.52 1.52 96 1013.1
20260505204320 11 209 1.6 6.4 0.00 1.52 1.52 96 1013.1
20260505204220 11 209 1.6 6.4 0.00 1.52 1.52 96 1013.1
20260505204124 11 209 0.0 6.4 0.00 1.52 1.52 96 1013.1
20260505204045 11 209 0.0 6.4 0.00 1.52 1.52 96 1013.1
20260505203920 11 100 0.0 0.0 0.00 1.52 1.52 96 1013.2
20260505203822 11 83 0.0 0.0 0.00 1.52 1.52 96 1013.1
20260505203622 11 83 0.0 0.0 0.00 1.52 1.52 96 1013.1
20260505203528 11 83 0.0 0.0 0.00 1.52 1.52 96 1013.2
20260505203222 11 83 0.0 0.0 0.00 1.52 1.52 96 1013.4
20260505203122 11 83 0.0 0.0 0.00 1.52 1.52 96 1013.3
20260505203038 11 83 0.0 0.0 0.00 1.52 1.52 96 1013.3
20260505202921 11 83 0.0 0.0 0.00 1.52 1.52 96 1013.3
20260505202824 11 83 0.0 0.0 0.00 1.52 1.52 96 1013.2
20260505202720 11 83 0.0 0.0 0.00 1.52 1.52 96 1013.3
20260505202620 11 83 0.0 0.0 0.00 1.52 1.52 96 1013.3
20260505202528 11 83 0.0 0.0 0.00 1.52 1.52 96 1013.3
20260505202424 11 83 0.0 0.0 0.00 1.52 1.52 96 1013.3
20260505202320 11 83 0.0 0.0 0.00 1.52 1.52 96 1013.3
20260505202121 12 83 0.0 0.0 0.00 1.52 1.52 96 1013.3
20260505202041 12 83 0.0 0.0 0.00 1.52 1.52 96 1013.3
20260505201921 12 83 0.0 0.0 0.00 1.52 1.52 96 1013.4
20260505201822 12 83 0.0 0.0 0.00 1.52 1.52 96 1013.3
20260505201623 12 83 0.0 0.0 0.00 1.52 1.52 96 1013.4
20260505201529 12 83 0.0 0.0 0.00 1.52 1.52 96 1013.3
20260505201321 12 83 0.0 0.0 0.00 1.52 1.52 96 1013.4
20260505201223 12 83 0.0 0.0 0.00 1.52 1.52 96 1013.4
20260505201122 12 83 0.0 0.0 0.00 1.52 1.52 96 1013.3
20260505201044 12 83 0.0 0.0 0.00 1.52 1.52 96 1013.4
20260505200921 12 83 0.0 0.0 0.00 1.52 1.52 96 1013.4
20260505200822 12 83 0.0 0.0 0.00 1.52 1.52 96 1013.4
20260505200720 12 83 0.0 0.0 0.00 1.52 1.52 96 1013.4
20260505200625 12 83 0.0 0.0 0.00 1.52 1.52 96 1013.3
20260505200535 12 83 0.0 0.0 0.00 1.52 1.52 96 1013.4
20260505200323 12 83 0.0 0.0 0.00 1.52 1.52 96 1013.3
20260505200224 12 83 0.0 0.0 0.00 1.52 1.52 96 1013.3
20260505200044 12 83 0.0 0.0 0.00 1.52 1.52 96 1013.3
20260505195923 12 83 0.0 0.0 0.00 1.52 1.52 96 1013.3
20260505195820 12 83 0.0 0.0 0.00 1.52 1.52 96 1013.2
20260505195724 12 83 0.0 0.0 0.00 1.52 1.52 96 1013.2
20260505195621 12 83 0.0 0.0 0.00 1.52 1.52 96 1013.2
20260505195421 12 83 0.0 0.0 0.00 1.52 1.52 96 1013.1
20260505195222 12 83 0.0 0.0 0.00 1.52 1.52 96 1013.1
20260505195124 12 83 0.0 0.0 0.00 1.52 1.52 96 1013.1
20260505195038 12 83 0.0 0.0 0.00 1.52 1.52 96 1013.2
20260505194929 12 83 0.0 0.0 0.00 1.52 1.52 96 1013.2
20260505194821 12 83 0.0 0.0 0.00 1.52 1.52 96 1013.1
20260505194721 11 83 0.0 0.0 0.00 1.52 1.52 96 1013.2
20260505194623 12 83 0.0 0.0 0.00 1.52 1.52 96 1013.2
20260505194421 12 83 0.0 0.0 0.00 1.52 1.52 96 1013.0
20260505194322 12 83 0.0 0.0 0.00 1.52 1.52 96 1013.2
20260505194229 12 83 0.0 0.0 0.00 1.52 1.52 96 1013.2
20260505194121 12 83 0.0 0.0 0.00 1.52 1.52 96 1013.0
20260505194037 12 83 0.0 0.0 0.00 1.52 1.52 96 1013.1
20260505193922 12 83 0.0 0.0 0.00 1.52 1.52 96 1013.0
20260505193824 12 83 0.0 0.0 0.00 1.52 1.52 96 1013.0
20260505193623 12 83 0.0 0.0 0.00 1.52 1.52 96 1012.9